Weather History for Morelia, Mexico

Change the Weather History Date:

Monday, September 10, 2012

  Actual Average Record
Temperature  
Mean Temperature 67 °F -  
Max Temperature 79 °F 76 °F 84 °F (2000)
Min Temperature 55 °F 55 °F 41 °F (2011)
Cooling Degree Days 2    
Growing Degree Days 17 (Base 50)    
Moisture  
Dew Point 56 °F    
Average Humidity 71    
Maximum Humidity 94    
Minimum Humidity 41    
Precipitation  
Precipitation 0.20 in 0.13 in - ()
Sea Level Pressure  
Sea Level Pressure 30.02 in    
Wind  
Wind Speed 2 mph ()    
Max Wind Speed 9 mph    
Max Gust Speed -    
Visibility 6.8 miles    
Events Rain    
Averages and records for this station are not official NWS values.
T = Trace of Precipitation, MM = Missing Value Source: Averaged Metar Reports

Daily Weather History Graph

Daily Weather History Graph

Search for Another Location

Airport:

Trip Planner

Search our weather history database for the weather conditions in past years. The results will help you decide how hot, cold, wet, or windy it might be!

Date:

Astronomy

Sep. 10, 2012 Rise Set
Actual Time 7:30 AM CDT 7:50 PM CDT
Civil Twilight 7:08 AM CDT 8:12 PM CDT
Nautical Twilight 6:42 AM CDT 8:38 PM CDT
Astronomical Twilight 6:16 AM CDT 9:04 PM CDT
Moon 2:26 AM CDT (9/10) 3:51 PM CDT (9/10)
Length of Visible Light 13h 04m
Length of Day
12h 20m
Waning Crescent, 30% of the Moon is Illuminated
Sep 10
Waning Crescent
Sep 15
New
Sep 22
First Quarter
Sep 29
Full
Oct 8
Last Quarter

Hourly Weather History & Observations

Time (CDT) Temp. Dew Point Humidity Pressure Visibility Wind Dir Wind Speed Gust Speed Precip Events Conditions
12:48 AM 60.8 °F 55.4 °F 82% 29.82 in 7.0 mi Calm Calm - N/A   Scattered Clouds
12:50 AM 63 °F 56 °F 70% 29.86 in 5 mi North 4.5 mph - -   Partly Cloudy
1:41 AM 59.0 °F 55.4 °F 88% 30.25 in 7.0 mi NW 5.8 mph - N/A   Mostly Cloudy
3:55 AM 60 °F 55 °F 78% 29.86 in 5 mi North 2.2 mph - -   Partly Cloudy
4:29 AM 57.2 °F 53.6 °F 88% 29.84 in 7.0 mi Calm Calm - N/A   Scattered Clouds
4:47 AM 57.2 °F 53.6 °F 88% 30.25 in 7.0 mi Calm Calm - N/A   Scattered Clouds
5:47 AM 55.4 °F 53.6 °F 94% 30.25 in 7.0 mi Calm Calm - N/A   Mostly Cloudy
6:45 AM 59 °F 56 °F 86% 29.92 in 5 mi ENE 4.5 mph - -   Partly Cloudy
6:53 AM 55.4 °F 53.6 °F 94% 29.87 in 7.0 mi Calm Calm - N/A   Mostly Cloudy
7:40 AM 55.4 °F 53.6 °F 94% 30.27 in 7.0 mi Calm Calm - N/A   Overcast
8:43 AM 57.2 °F 55.4 °F 94% 30.28 in 7.0 mi Calm Calm - N/A   Overcast
9:50 AM 64.4 °F 55.4 °F 73% 29.87 in 7.0 mi Variable 3.5 mph - N/A   Mostly Cloudy
9:55 AM 62 °F 56 °F 73% 29.98 in 6 mi SSW 2.2 mph - -   Partly Cloudy
10:44 AM 64.4 °F 55.4 °F 73% 30.30 in 7.0 mi Variable 3.5 mph - N/A   Scattered Clouds
11:44 AM 69.8 °F 55.4 °F 60% 30.29 in 7.0 mi Calm Calm - N/A   Scattered Clouds
12:47 PM 73.4 °F 55.4 °F 53% 29.83 in 7.0 mi Calm Calm - N/A   Scattered Clouds
12:55 PM 73 °F 57 °F 47% 29.94 in 7 mi SSW 2.2 mph - -   Partly Cloudy
1:41 PM 73.4 °F 57.2 °F 57% 30.24 in 7.0 mi NNE 9.2 mph - N/A   Scattered Clouds
2:47 PM 73.4 °F 55.4 °F 53% 30.21 in 8.0 mi West 3.5 mph - N/A   Scattered Clouds
3:45 PM 73.4 °F 57.2 °F 57% 29.77 in 8.0 mi West 3.5 mph - N/A   Mostly Cloudy
3:50 PM 77 °F 58 °F 41% 29.81 in 7 mi NE 6.7 mph - -   Partly Cloudy
4:49 PM 75.2 °F 57.2 °F 53% 30.15 in 8.0 mi WNW 6.9 mph - N/A   Mostly Cloudy
5:47 PM 75.2 °F 57.2 °F 53% 30.14 in 8.0 mi NW 9.2 mph - N/A   Mostly Cloudy
6:50 PM 74 °F 56 °F 43% 29.73 in 7 mi ESE 4.5 mph - -   Partly Cloudy
6:51 PM 73.4 °F 59.0 °F 61% 29.73 in 8.0 mi WNW 2.3 mph - N/A   Mostly Cloudy
7:50 PM 69.8 °F 60.8 °F 73% 30.15 in 8.0 mi Calm Calm - N/A   Mostly Cloudy
8:43 PM 68.0 °F 59.0 °F 73% 30.16 in 7.0 mi Calm Calm - N/A   Mostly Cloudy
9:45 PM 68.0 °F 57.2 °F 68% 29.74 in 6.0 mi ENE 9.2 mph - N/A   Mostly Cloudy
9:50 PM 68 °F 58 °F 63% 29.75 in 5 mi North 4.5 mph - - Rain Heavy Rain
10:45 PM 64.4 °F 57.2 °F 77% 30.24 in 6.0 mi Calm Calm - N/A   Mostly Cloudy
11:43 PM 62.6 °F 59.0 °F 88% 30.26 in 6.0 mi West 3.5 mph - N/A   Mostly Cloudy